Weather History for Marfa, TX

Change the Weather History Date:

Thursday, January 16, 2014

  Actual Average Record
Temperature  
Mean Temperature 43 °F -  
Max Temperature 62 °F 57 °F 73 °F (2000)
Min Temperature 24 °F 26 °F 15 °F (2008)
Degree Days  
Heating Degree Days 22    
Moisture  
Dew Point 13 °F    
Average Humidity 33    
Maximum Humidity 64    
Minimum Humidity 14    
Precipitation  
Precipitation 0.00 in - - ()
Sea Level Pressure  
Sea Level Pressure 30.17 in    
Wind  
Wind Speed 7 mph (NNW)    
Max Wind Speed 20 mph    
Max Gust Speed 24 mph    
Visibility 10 miles    
Events      
Averages and records for this station are not official NWS values.
T = Trace of Precipitation, MM = Missing Value Source: NWS Daily Summary

Daily Weather History Graph

Daily Weather History Graph

Search for Another Location

Airport:

Trip Planner

Search our weather history database for the weather conditions in past years. The results will help you decide how hot, cold, wet, or windy it might be!

Date:

Astronomy

Jan. 16, 2014 Rise Set
Actual Time 7:53 AM CST 6:18 PM CST
Civil Twilight 7:27 AM CST 6:44 PM CST
Nautical Twilight 6:57 AM CST 7:14 PM CST
Astronomical Twilight 6:29 AM CST 7:42 PM CST
Moon 7:05 PM CST (1/16) 7:54 AM CST (1/16)
Length of Visible Light 11h 17m
Length of Day
10h 25m
Full, 100% of the Moon is Illuminated
Jan 16
Full
Jan 23
Last Quarter
Jan 30
New
Feb 6
First Quarter
Feb 14
Full

Hourly Weather History & Observations

Time (CST) Temp. Windchill Dew Point Humidity Pressure Visibility Wind Dir Wind Speed Gust Speed Precip Events Conditions
12:15 AM 28.4 °F 22.2 °F 14.0 °F 55% 30.19 in 10.0 mi NE 5.8 mph - N/A   Clear
12:35 AM 28.4 °F 23.3 °F 14.0 °F 55% 30.19 in 10.0 mi NE 4.6 mph - N/A   Clear
12:55 AM 24.8 °F 19.1 °F 12.2 °F 59% 30.18 in 10.0 mi SW 4.6 mph - N/A   Clear
1:15 AM 24.8 °F 19.1 °F 14.0 °F 64% 30.18 in 10.0 mi West 4.6 mph - N/A   Clear
1:35 AM 28.4 °F 23.3 °F 14.0 °F 55% 30.18 in 10.0 mi North 4.6 mph - N/A   Clear
1:55 AM 28.4 °F 22.2 °F 12.2 °F 51% 30.17 in 10.0 mi WNW 5.8 mph - N/A   Clear
2:15 AM 30.2 °F 23.4 °F 15.8 °F 55% 30.17 in 10.0 mi WNW 6.9 mph - N/A   Clear
2:35 AM 30.2 °F 22.6 °F 12.2 °F 47% 30.16 in 10.0 mi WNW 8.1 mph - N/A   Clear
2:55 AM 32.0 °F 26.4 °F 12.2 °F 44% 30.16 in 10.0 mi NW 5.8 mph - N/A   Clear
3:15 AM 32.0 °F 25.6 °F 12.2 °F 44% 30.16 in 10.0 mi WNW 6.9 mph - N/A   Clear
3:35 AM 30.2 °F 25.4 °F 12.2 °F 47% 30.16 in 10.0 mi NW 4.6 mph - N/A   Clear
3:55 AM 30.2 °F 23.4 °F 12.2 °F 47% 30.16 in 10.0 mi NW 6.9 mph - N/A   Clear
4:15 AM 35.6 °F 29.2 °F 12.2 °F 38% 30.16 in 10.0 mi WNW 8.1 mph - N/A   Clear
4:35 AM 35.6 °F 32.8 °F 10.4 °F 35% 30.15 in 10.0 mi WNW 3.5 mph - N/A   Clear
4:55 AM 37.4 °F 32.8 °F 10.4 °F 33% 30.14 in 10.0 mi WNW 5.8 mph - N/A   Clear
5:15 AM 39.2 °F 35.9 °F 10.4 °F 31% 30.14 in 10.0 mi NW 4.6 mph - N/A   Clear
5:35 AM 37.4 °F - 10.4 °F 33% 30.14 in 10.0 mi Calm Calm - N/A   Clear
5:55 AM 35.6 °F 31.7 °F 8.6 °F 33% 30.13 in 10.0 mi West 4.6 mph - N/A   Clear
6:15 AM 32.0 °F - 10.4 °F 41% 30.13 in 10.0 mi Calm Calm - N/A   Clear
6:35 AM 33.8 °F 28.6 °F 8.6 °F 35% 30.14 in 10.0 mi NW 5.8 mph - N/A   Clear
6:55 AM 37.4 °F 31.4 °F 10.4 °F 33% 30.14 in 10.0 mi West 8.1 mph - N/A   Clear
7:15 AM 32.0 °F - 8.6 °F 38% 30.15 in 10.0 mi Calm Calm - N/A   Clear
7:35 AM 35.6 °F - 8.6 °F 33% 30.15 in 10.0 mi Calm Calm - N/A   Clear
7:55 AM 33.8 °F 30.8 °F 8.6 °F 35% 30.16 in 10.0 mi WNW 3.5 mph - N/A   Clear
8:15 AM 30.2 °F - 8.6 °F 40% 30.17 in 10.0 mi Calm Calm - N/A   Clear
8:35 AM 30.2 °F 25.4 °F 12.2 °F 47% 30.17 in 10.0 mi SSW 4.6 mph - N/A   Clear
8:55 AM 35.6 °F 32.8 °F 15.8 °F 44% 30.18 in 10.0 mi East 3.5 mph - N/A   Clear
9:15 AM 41.0 °F - 12.2 °F 31% 30.19 in 10.0 mi Calm Calm - N/A   Clear
9:35 AM 44.6 °F 43.1 °F 12.2 °F 27% 30.19 in 10.0 mi SSW 3.5 mph - N/A   Clear
9:55 AM 46.4 °F - 14.0 °F 27% 30.19 in 10.0 mi Calm Calm - N/A   Clear
10:15 AM 53.6 °F - 12.2 °F 19% 30.20 in 10.0 mi WNW 8.1 mph 16.1 mph N/A   Clear
10:35 AM 55.4 °F - 10.4 °F 17% 30.21 in 10.0 mi West 13.8 mph 20.7 mph N/A   Clear
10:55 AM 55.4 °F - 10.4 °F 17% 30.20 in 10.0 mi West 12.7 mph - N/A   Clear
11:15 AM 57.2 °F - 10.4 °F 16% 30.19 in 10.0 mi West 13.8 mph - N/A   Clear
11:35 AM 57.2 °F - 12.2 °F 17% 30.19 in 10.0 mi West 15.0 mph - N/A   Clear
11:55 AM 59.0 °F - 12.2 °F 16% 30.18 in 10.0 mi WNW 11.5 mph - N/A   Clear
12:15 PM 59.0 °F - 12.2 °F 16% 30.16 in 10.0 mi West 11.5 mph 16.1 mph N/A   Clear
12:35 PM 60.8 °F - 12.2 °F 15% 30.16 in 10.0 mi West 11.5 mph 17.3 mph N/A   Clear
12:55 PM 60.8 °F - 12.2 °F 15% 30.15 in 10.0 mi West 11.5 mph - N/A   Clear
1:15 PM 60.8 °F - 12.2 °F 15% 30.13 in 10.0 mi West 8.1 mph - N/A   Clear
1:35 PM 60.8 °F - 12.2 °F 15% 30.12 in 10.0 mi West 4.6 mph - N/A   Clear
1:55 PM 62.6 °F - 12.2 °F 14% 30.11 in 10.0 mi WSW 9.2 mph - N/A   Clear
2:15 PM 62.6 °F - 12.2 °F 14% 30.11 in 10.0 mi NNW 5.8 mph - N/A   Clear
2:35 PM 62.6 °F - 12.2 °F 14% 30.11 in 10.0 mi NNE 6.9 mph - N/A   Clear
2:55 PM 62.6 °F - 12.2 °F 14% 30.11 in 10.0 mi ENE 9.2 mph - N/A   Clear
3:15 PM 62.6 °F - 12.2 °F 14% 30.11 in 10.0 mi ENE 8.1 mph - N/A   Clear
3:35 PM 62.6 °F - 12.2 °F 14% 30.11 in 10.0 mi NE 11.5 mph - N/A   Clear
3:55 PM 62.6 °F - 12.2 °F 14% 30.11 in 10.0 mi NE 12.7 mph - N/A   Clear
4:15 PM 60.8 °F - 14.0 °F 16% 30.12 in 10.0 mi NNE 18.4 mph - N/A   Clear
4:35 PM 57.2 °F - 15.8 °F 20% 30.12 in 10.0 mi NNE 17.3 mph - N/A   Clear
4:55 PM 57.2 °F - 15.8 °F 20% 30.13 in 10.0 mi NNE 18.4 mph 23.0 mph N/A   Clear
5:15 PM 55.4 °F - 15.8 °F 21% 30.14 in 10.0 mi NE 16.1 mph 23.0 mph N/A   Clear
5:35 PM 53.6 °F - 15.8 °F 22% 30.15 in 10.0 mi NE 16.1 mph 24.2 mph N/A   Clear
5:55 PM 51.8 °F - 15.8 °F 24% 30.16 in 10.0 mi NNE 19.6 mph 23.0 mph N/A   Clear
6:15 PM 50.0 °F - 15.8 °F 26% 30.17 in 10.0 mi NNE 12.7 mph 20.7 mph N/A   Clear
6:35 PM 48.2 °F - 15.8 °F 27% 30.17 in 10.0 mi NNE 11.5 mph - N/A   Clear
6:55 PM 44.6 °F 41.4 °F 15.8 °F 31% 30.17 in 10.0 mi North 5.8 mph - N/A   Clear
7:15 PM 42.8 °F 38.6 °F 15.8 °F 34% 30.17 in 10.0 mi North 6.9 mph - N/A   Clear
7:35 PM 42.8 °F 38.6 °F 15.8 °F 34% 30.18 in 10.0 mi NNW 6.9 mph - N/A   Clear
7:55 PM 39.2 °F 34.2 °F 15.8 °F 39% 30.19 in 10.0 mi North 6.9 mph - N/A   Clear
8:15 PM 39.2 °F 35.0 °F 15.8 °F 39% 30.20 in 10.0 mi North 5.8 mph - N/A   Clear
8:35 PM 44.6 °F 42.2 °F 17.6 °F 34% 30.20 in 10.0 mi NNE 4.6 mph - N/A   Clear
8:55 PM 39.2 °F 35.9 °F 15.8 °F 39% 30.22 in 10.0 mi North 4.6 mph - N/A   Clear
9:15 PM 37.4 °F 32.1 °F 15.8 °F 41% 30.22 in 10.0 mi North 6.9 mph - N/A   Clear
9:35 PM 37.4 °F 33.8 °F 15.8 °F 41% 30.22 in 10.0 mi NNW 4.6 mph - N/A   Clear
9:55 PM 35.6 °F 31.7 °F 15.8 °F 44% 30.23 in 10.0 mi North 4.6 mph - N/A   Clear
10:15 PM 33.8 °F 27.0 °F 15.8 °F 48% 30.24 in 10.0 mi North 8.1 mph - N/A   Clear
10:35 PM 35.6 °F 28.6 °F 17.6 °F 48% 30.24 in 10.0 mi North 9.2 mph - N/A   Clear
10:55 PM 37.4 °F 29.3 °F 17.6 °F 45% 30.25 in 10.0 mi NNE 12.7 mph - N/A   Clear
11:15 PM 39.2 °F 33.6 °F 17.6 °F 42% 30.25 in 10.0 mi NNE 8.1 mph - N/A   Clear
11:35 PM 35.6 °F 29.2 °F 17.6 °F 48% 30.25 in 10.0 mi North 8.1 mph - N/A   Clear
11:55 PM 35.6 °F 28.6 °F 17.6 °F 48% 30.24 in 10.0 mi NNE 9.2 mph - N/A   Clear